| time (UTC) | temp F | wind direction | speed MPH | gust MPH | rain 1hr in | rain 24hr in | rain mn in | humidity % | barometer mb |
| 20260902012103 | 60 | 100 | 1.0 | 2.0 | 0.00 | 0.29 | 0.29 | 95 | 1017.9 |
| 20260902011104 | 61 | 100 | 0.0 | 0.0 | 0.00 | 0.29 | 0.29 | 95 | 1018.0 |
| 20260902005124 | 61 | 100 | 0.0 | 2.0 | 0.00 | 0.29 | 0.29 | 94 | 1017.8 |
| 20260902004103 | 61 | 88 | 1.0 | 3.0 | 0.00 | 0.29 | 0.29 | 94 | 1017.9 |
| 20260902003104 | 61 | 127 | 0.0 | 3.0 | 0.00 | 0.29 | 0.29 | 94 | 1017.7 |
| 20260902002103 | 61 | 73 | 0.0 | 2.0 | 0.00 | 0.29 | 0.29 | 94 | 1017.8 |
| 20260902001104 | 61 | 73 | 1.0 | 2.0 | 0.00 | 0.29 | 0.29 | 94 | 1018.0 |
| 20260901235103 | 61 | 105 | 1.0 | 3.0 | 0.00 | 0.29 | 0.29 | 94 | 1017.6 |
| 20260901234103 | 61 | 113 | 1.0 | 3.0 | 0.00 | 0.29 | 0.29 | 94 | 1017.4 |
| 20260901233125 | 61 | 115 | 1.0 | 3.0 | 0.00 | 0.29 | 0.29 | 94 | 1017.3 |
| 20260901232103 | 62 | 114 | 1.0 | 4.0 | 0.00 | 0.29 | 0.29 | 94 | 1017.4 |
| 20260901231125 | 62 | 91 | 1.0 | 2.0 | 0.00 | 0.29 | 0.29 | 94 | 1017.4 |
| 20260901230103 | 62 | 136 | 0.0 | 3.0 | 0.00 | 0.29 | 0.29 | 94 | 1017.3 |
| 20260901225104 | 62 | 96 | 0.0 | 5.0 | 0.00 | 0.29 | 0.29 | 94 | 1017.3 |
| 20260901224103 | 62 | 142 | 3.0 | 5.0 | 0.00 | 0.29 | 0.29 | 94 | 1017.4 |
| 20260901223103 | 62 | 121 | 1.0 | 3.0 | 0.00 | 0.29 | 0.29 | 94 | 1017.3 |
| 20260901222103 | 62 | 142 | 1.0 | 6.0 | 0.00 | 0.29 | 0.29 | 94 | 1017.4 |
| 20260901221103 | 62 | 116 | 1.0 | 8.0 | 0.00 | 0.29 | 0.29 | 94 | 1017.4 |
| 20260901215103 | 61 | 103 | 2.0 | 4.0 | 0.00 | 0.29 | 0.29 | 94 | 1017.8 |
| 20260901214104 | 61 | 42 | 2.0 | 4.0 | 0.00 | 0.29 | 0.29 | 94 | 1017.7 |
| 20260901213104 | 61 | 98 | 1.0 | 3.0 | 0.00 | 0.29 | 0.29 | 94 | 1017.6 |
| 20260901212103 | 61 | 63 | 1.0 | 2.0 | 0.00 | 0.29 | 0.29 | 93 | 1017.4 |
| 20260901211104 | 61 | 94 | 0.0 | 3.0 | 0.00 | 0.29 | 0.29 | 93 | 1017.4 |
| 20260901205104 | 61 | 176 | 2.0 | 4.0 | 0.01 | 0.29 | 0.29 | 93 | 1017.2 |
| 20260901204103 | 60 | 173 | 1.0 | 4.0 | 0.01 | 0.29 | 0.29 | 92 | 1017.3 |
| 20260901203104 | 60 | 182 | 2.0 | 6.0 | 0.00 | 0.28 | 0.28 | 92 | 1017.2 |
| 20260901201103 | 60 | 139 | 3.0 | 8.0 | 0.00 | 0.28 | 0.28 | 91 | 1017.1 |
| 20260901200103 | 60 | 145 | 5.0 | 8.0 | 0.00 | 0.28 | 0.28 | 92 | 1017.1 |
| 20260901195103 | 60 | 100 | 4.0 | 10.0 | 0.02 | 0.27 | 0.27 | 92 | 1017.2 |
| 20260901194103 | 61 | 143 | 2.0 | 4.0 | 0.00 | 0.25 | 0.25 | 92 | 1017.1 |
| 20260901193103 | 61 | 88 | 1.0 | 6.0 | 0.00 | 0.25 | 0.25 | 93 | 1017.0 |
| 20260901192104 | 61 | 99 | 3.0 | 7.0 | 0.00 | 0.25 | 0.25 | 93 | 1016.8 |
| 20260901191103 | 61 | 112 | 2.0 | 8.0 | 0.00 | 0.25 | 0.25 | 93 | 1016.7 |
| 20260901190104 | 61 | 109 | 2.0 | 8.0 | 0.00 | 0.25 | 0.25 | 93 | 1016.7 |
| 20260901185103 | 61 | 124 | 3.0 | 9.0 | 0.07 | 0.25 | 0.25 | 93 | 1016.8 |
| 20260901184104 | 61 | 141 | 5.0 | 10.0 | 0.07 | 0.25 | 0.25 | 93 | 1016.9 |
| 20260901183103 | 62 | 124 | 3.0 | 10.0 | 0.07 | 0.25 | 0.25 | 93 | 1016.7 |
| 20260901182103 | 62 | 149 | 6.0 | 11.0 | 0.06 | 0.24 | 0.24 | 93 | 1016.6 |
| 20260901181103 | 62 | 144 | 3.0 | 10.0 | 0.05 | 0.23 | 0.23 | 93 | 1016.7 |
| 20260901180104 | 62 | 159 | 7.0 | 12.0 | 0.01 | 0.19 | 0.19 | 92 | 1016.5 |
| 20260901175103 | 62 | 163 | 5.0 | 9.0 | 0.04 | 0.12 | 0.12 | 91 | 1016.8 |
| 20260901174103 | 63 | 190 | 4.0 | 7.0 | 0.01 | 0.09 | 0.09 | 89 | 1017.0 |
| 20260901172146 | 64 | 180 | 6.0 | 13.0 | 0.00 | 0.08 | 0.08 | 87 | 1016.8 |
| 20260901171103 | 64 | 156 | 6.0 | 10.0 | 0.00 | 0.08 | 0.08 | 86 | 1016.8 |
| 20260901165103 | 65 | 186 | 8.0 | 16.0 | 0.00 | 0.08 | 0.08 | 84 | 1016.7 |
| 20260901164103 | 65 | 176 | 9.0 | 13.0 | 0.00 | 0.08 | 0.08 | 82 | 1016.6 |
| 20260901163103 | 66 | 176 | 6.0 | 15.0 | 0.00 | 0.08 | 0.08 | 82 | 1016.5 |
| 20260901162145 | 66 | 169 | 11.0 | 19.0 | 0.00 | 0.08 | 0.08 | 79 | 1016.5 |
| 20260901161104 | 67 | 175 | 8.0 | 16.0 | 0.00 | 0.08 | 0.08 | 82 | 1016.6 |
| 20260901155104 | 69 | 169 | 8.0 | 11.0 | 0.00 | 0.08 | 0.08 | 86 | 1016.6 |
| 20260901154103 | 69 | 167 | 7.0 | 11.0 | 0.00 | 0.08 | 0.08 | 86 | 1016.7 |
| 20260901153125 | 69 | 187 | 9.0 | 13.0 | 0.00 | 0.08 | 0.08 | 85 | 1016.7 |
| 20260901152103 | 68 | 188 | 6.0 | 10.0 | 0.00 | 0.08 | 0.08 | 86 | 1016.7 |
| 20260901151104 | 68 | 182 | 5.0 | 10.0 | 0.00 | 0.08 | 0.08 | 86 | 1016.7 |
| 20260901150103 | 69 | 168 | 6.0 | 12.0 | 0.00 | 0.08 | 0.08 | 88 | 1016.5 |
| 20260901145104 | 69 | 169 | 3.0 | 9.0 | 0.05 | 0.08 | 0.08 | 94 | 1016.8 |
| 20260901144103 | 68 | 156 | 5.0 | 9.0 | 0.02 | 0.05 | 0.05 | 93 | 1016.6 |
| 20260901143103 | 69 | 176 | 5.0 | 8.0 | 0.02 | 0.05 | 0.05 | 93 | 1016.7 |
| 20260901142103 | 68 | 155 | 2.0 | 4.0 | 0.01 | 0.04 | 0.04 | 92 | 1017.0 |
| 20260901141103 | 68 | 333 | 0.0 | 2.0 | 0.01 | 0.04 | 0.04 | 93 | 1017.3 |
| 20260901140103 | 68 | 27 | 1.0 | 4.0 | 0.00 | 0.03 | 0.03 | 93 | 1017.1 |
| 20260901135103 | 68 | 88 | 1.0 | 4.0 | 0.02 | 0.03 | 0.03 | 93 | 1017.0 |
| 20260901134103 | 68 | 116 | 1.0 | 3.0 | 0.02 | 0.03 | 0.03 | 94 | 1016.7 |
| 20260901133104 | 67 | 92 | 1.0 | 3.0 | 0.01 | 0.02 | 0.02 | 94 | 1016.8 |
| 20260901132124 | 67 | 107 | 0.0 | 3.0 | 0.01 | 0.02 | 0.02 | 94 | 1016.8 |
| 20260901131104 | 67 | 94 | 1.0 | 2.0 | 0.00 | 0.01 | 0.01 | 94 | 1016.9 |
| 20260901130124 | 67 | 79 | 1.0 | 2.0 | 0.00 | 0.01 | 0.01 | 94 | 1016.8 |
| 20260901125104 | 67 | 101 | 1.0 | 2.0 | 0.01 | 0.01 | 0.01 | 94 | 1016.7 |
| 20260901124103 | 67 | 93 | 1.0 | 3.0 | 0.00 | 0.00 | 0.00 | 93 | 1016.6 |
| 20260901123103 | 66 | 53 | 1.0 | 2.0 | 0.00 | 0.00 | 0.00 | 94 | 1016.8 |
| 20260901122125 | 66 | 131 | 1.0 | 2.0 | 0.00 | 0.00 | 0.00 | 93 | 1016.7 |
| 20260901121103 | 66 | 74 | 1.0 | 2.0 | 0.00 | 0.00 | 0.00 | 94 | 1016.7 |
| 20260901120104 | 66 | 117 | 1.0 | 3.0 | 0.00 | 0.00 | 0.00 | 94 | 1016.7 |
| 20260901115103 | 66 | 188 | 2.0 | 4.0 | 0.00 | 0.00 | 0.00 | 94 | 1016.7 |
| 20260901114103 | 65 | 127 | 2.0 | 3.0 | 0.00 | 0.00 | 0.00 | 94 | 1016.5 |
| 20260901113146 | 65 | 105 | 1.0 | 2.0 | 0.00 | 0.00 | 0.00 | 95 | 1016.6 |
| 20260901112103 | 65 | 105 | 0.0 | 2.0 | 0.00 | 0.00 | 0.00 | 95 | 1016.5 |
| 20260901111104 | 64 | 105 | 0.0 | 0.0 | 0.00 | 0.00 | 0.00 | 95 | 1016.4 |
| 20260901110103 | 64 | 105 | 0.0 | 0.0 | 0.00 | 0.00 | 0.00 | 95 | 1016.4 |
| 20260901105104 | 64 | 105 | 0.0 | 0.0 | 0.00 | 0.00 | 0.00 | 95 | 1016.4 |
| 20260901104124 | 64 | 105 | 0.0 | 0.0 | 0.00 | 0.00 | 0.00 | 95 | 1016.4 |
| 20260901103104 | 64 | 105 | 0.0 | 0.0 | 0.00 | 0.00 | 0.00 | 95 | 1016.2 |
| 20260901102103 | 64 | 105 | 0.0 | 0.0 | 0.00 | 0.00 | 0.00 | 94 | 1016.1 |
| 20260901101103 | 64 | 105 | 0.0 | 0.0 | 0.00 | 0.00 | 0.00 | 95 | 1016.2 |
| 20260901100125 | 64 | 105 | 0.0 | 0.0 | 0.00 | 0.00 | 0.00 | 94 | 1016.1 |
| 20260901095103 | 64 | 105 | 0.0 | 0.0 | 0.00 | 0.00 | 0.00 | 94 | 1016.1 |
| 20260901094146 | 64 | 105 | 0.0 | 1.0 | 0.00 | 0.00 | 0.00 | 94 | 1016.0 |
| 20260901093103 | 64 | 105 | 0.0 | 0.0 | 0.00 | 0.00 | 0.00 | 94 | 1016.1 |
| 20260901092103 | 64 | 105 | 0.0 | 1.0 | 0.00 | 0.00 | 0.00 | 94 | 1016.1 |
| 20260901091104 | 64 | 105 | 0.0 | 0.0 | 0.00 | 0.00 | 0.00 | 94 | 1016.2 |
| 20260901085104 | 64 | 59 | 1.0 | 1.0 | 0.00 | 0.00 | 0.00 | 94 | 1016.1 |
| 20260901084103 | 64 | 59 | 0.0 | 0.0 | 0.00 | 0.00 | 0.00 | 94 | 1016.3 |
| 20260901083104 | 64 | 59 | 0.0 | 1.0 | 0.00 | 0.00 | 0.00 | 93 | 1016.6 |
| 20260901082103 | 65 | 59 | 0.0 | 1.0 | 0.00 | 0.00 | 0.00 | 93 | 1016.9 |
| 20260901081104 | 65 | 59 | 1.0 | 2.0 | 0.00 | 0.00 | 0.00 | 94 | 1017.1 |
| 20260901075104 | 64 | 150 | 1.0 | 2.0 | 0.00 | 0.00 | 0.00 | 93 | 1016.8 |
| 20260901074103 | 64 | 146 | 0.0 | 1.0 | 0.00 | 0.00 | 0.00 | 93 | 1016.8 |
| 20260901073104 | 65 | 146 | 0.0 | 0.0 | 0.00 | 0.00 | 0.00 | 93 | 1016.9 |
| 20260901072124 | 65 | 146 | 0.0 | 1.0 | 0.00 | 0.00 | 0.00 | 93 | 1016.8 |
| 20260901071103 | 65 | 146 | 0.0 | 2.0 | 0.00 | 0.00 | 0.00 | 92 | 1016.8 |
| 20260901070103 | 65 | 146 | 1.0 | 4.0 | 0.00 | 0.00 | 0.00 | 92 | 1016.8 |
| 20260901065103 | 65 | 150 | 1.0 | 3.0 | 0.00 | 0.00 | 0.00 | 92 | 1016.9 |
| 20260901064103 | 65 | 153 | 1.0 | 3.0 | 0.00 | 0.00 | 0.00 | 92 | 1017.0 |
| 20260901063103 | 65 | 239 | 0.0 | 1.0 | 0.00 | 0.00 | 0.00 | 92 | 1017.4 |
| 20260901062104 | 65 | 225 | 1.0 | 2.0 | 0.00 | 0.00 | 0.00 | 92 | 1017.3 |
| 20260901061103 | 65 | 201 | 0.0 | 2.0 | 0.00 | 0.00 | 0.00 | 92 | 1017.2 |
| 20260901060104 | 65 | 210 | 0.0 | 2.0 | 0.00 | 0.00 | 0.00 | 91 | 1017.1 |
| 20260901055103 | 65 | 171 | 0.0 | 0.0 | 0.00 | 0.00 | 0.00 | 91 | 1017.1 |
| 20260901054104 | 65 | 171 | 0.0 | 1.0 | 0.00 | 0.00 | 0.00 | 90 | 1017.3 |
| 20260901053103 | 65 | 171 | 1.0 | 1.0 | 0.00 | 0.00 | 0.00 | 90 | 1017.4 |
| 20260901052124 | 65 | 171 | 0.0 | 2.0 | 0.00 | 0.00 | 0.00 | 90 | 1017.3 |
| 20260901051125 | 65 | 199 | 0.0 | 1.0 | 0.00 | 0.01 | 0.00 | 89 | 1017.4 |
| 20260901050124 | 65 | 199 | 0.0 | 2.0 | 0.00 | 0.01 | 0.00 | 89 | 1017.4 |
| 20260901045103 | 65 | 168 | 1.0 | 4.0 | 0.00 | 0.01 | 0.00 | 88 | 1017.4 |
| 20260901044103 | 66 | 186 | 3.0 | 5.0 | 0.00 | 0.01 | 0.00 | 88 | 1017.4 |
| 20260901043103 | 66 | 216 | 2.0 | 5.0 | 0.00 | 0.01 | 0.00 | 88 | 1017.5 |
| 20260901042104 | 65 | 209 | 2.0 | 4.0 | 0.00 | 0.01 | 0.00 | 88 | 1017.7 |
| 20260901041103 | 65 | 195 | 1.0 | 3.0 | 0.00 | 0.01 | 0.00 | 89 | 1017.8 |
| 20260901040104 | 65 | 221 | 0.0 | 4.0 | 0.00 | 0.01 | 0.01 | 89 | 1017.8 |
| 20260901035103 | 65 | 223 | 1.0 | 3.0 | 0.00 | 0.01 | 0.01 | 89 | 1017.8 |
| 20260901034104 | 65 | 188 | 2.0 | 3.0 | 0.00 | 0.01 | 0.01 | 88 | 1017.7 |
| 20260901033103 | 65 | 185 | 1.0 | 3.0 | 0.00 | 0.01 | 0.01 | 88 | 1017.8 |
| 20260901032124 | 66 | 205 | 1.0 | 2.0 | 0.00 | 0.02 | 0.01 | 86 | 1017.7 |
| 20260901031103 | 66 | 210 | 1.0 | 4.0 | 0.00 | 0.03 | 0.01 | 85 | 1017.8 |
| 20260901030103 | 66 | 186 | 2.0 | 3.0 | 0.00 | 0.03 | 0.01 | 84 | 1017.7 |
| 20260901025103 | 66 | 199 | 3.0 | 5.0 | 0.00 | 0.03 | 0.01 | 83 | 1017.7 |
| 20260901024103 | 66 | 189 | 3.0 | 6.0 | 0.00 | 0.03 | 0.01 | 83 | 1017.7 |
| 20260901023103 | 66 | 184 | 4.0 | 7.0 | 0.00 | 0.03 | 0.01 | 83 | 1017.8 |
| 20260901022103 | 66 | 149 | 2.0 | 4.0 | 0.00 | 0.04 | 0.01 | 84 | 1017.8 |
| 20260901021104 | 66 | 173 | 2.0 | 5.0 | 0.00 | 0.05 | 0.01 | 81 | 1018.1 |
| 20260901015125 | 67 | 208 | 3.0 | 5.0 | 0.00 | 0.05 | 0.01 | 81 | 1018.2 |
| 20260901014103 | 67 | 191 | 4.0 | 6.0 | 0.00 | 0.05 | 0.01 | 82 | 1018.0 |
| 20260901013104 | 67 | 192 | 2.0 | 5.0 | 0.00 | 0.05 | 0.01 | 82 | 1018.0 |